Theta_e
317 317 318 319 320 320 321 321 322 321 321 321 320 321 322 322 322 322 321 321 321 320 321 323 324 325 325 325 325 326 326 325 325 325 325 325 325 325 325 325 325 325
316 317 318 319 319 320 321 321 321 320 320 319 319 319 320 321 321 321 320 320 319 318 319 321 323 324 325 325 324 324 324 325 325 324 324 323 323 323 323 323 323 323
316 317 318 319 320 320 320 319 319 319 318 317 317 317 317 318 318 318 317 318 317 317 318 320 322 324 324 324 324 323 323 323 322 322 322 321 321 322 321 321 322 322
317 317 318 319 320 320 319 318 318 317 316 315 315 314 314 315 315 315 315 316 316 316 318 319 321 323 323 323 323 323 322 321 320 320 319 318 318 318 318 319 320 320
317 317 318 320 320 319 318 317 316 314 313 312 311 310 311 312 312 313 313 313 315 317 318 319 320 322 323 323 323 322 320 319 318 318 318 316 315 315 314 314 315 315
316 317 318 320 319 317 316 314 311 310 309 308 307 307 307 308 309 310 310 312 315 317 318 319 320 322 322 322 321 319 317 316 316 317 317 315 314 313 310 309 309 309
316 316 318 320 319 316 313 311 309 308 308 308 307 306 304 305 307 308 309 312 314 316 317 319 320 320 320 319 318 316 314 313 312 314 315 312 311 309 306 305 305 304
315 316 318 319 318 315 313 311 310 309 309 310 309 305 303 303 305 308 310 312 313 315 317 318 318 318 318 317 316 314 312 310 310 311 310 308 306 305 303 302 303 303
315 316 318 319 317 314 313 311 310 310 310 310 309 305 302 303 305 308 311 312 313 315 316 317 316 316 316 315 314 313 311 310 309 307 304 303 302 302 301 302 302 303
315 316 318 318 317 314 313 311 311 310 310 310 308 305 301 302 306 309 311 312 313 314 315 314 315 315 315 313 312 310 309 307 304 302 301 301 301 301 301 302 302 302
314 316 318 318 316 314 312 311 310 310 310 309 308 305 301 301 306 309 310 311 312 313 313 313 313 313 311 309 306 305 303 302 301 301 300 300 300 300 300 301 301 301
314 315 317 318 316 315 312 310 310 310 310 308 307 305 301 301 306 309 310 310 311 312 312 311 309 307 304 302 301 300 300 300 300 300 300 300 299 299 299 300 300 300
313 314 315 315 315 315 312 309 309 310 309 307 306 304 300 301 306 308 309 309 309 310 309 307 305 302 301 300 299 299 299 299 299 299 299 299 299 298 299 299 299 298
313 314 314 313 315 314 312 310 309 309 308 305 304 302 300 301 305 307 308 308 308 308 307 305 304 302 302 301 300 298 298 298 299 298 298 298 298 298 298 298 298 298
312 313 313 313 313 313 312 310 309 308 306 303 301 299 299 301 304 305 306 307 307 307 306 305 304 302 302 302 300 298 297 298 298 297 297 297 297 297 297 298 298 298
312 313 313 312 312 312 310 310 308 307 305 301 298 296 297 299 301 301 303 304 306 307 306 305 303 302 302 302 300 297 297 297 297 296 297 297 297 296 296 297 298 298
312 313 313 312 312 311 310 309 308 306 304 300 295 293 294 296 297 297 299 302 305 306 306 304 302 301 302 301 299 296 296 297 297 296 296 296 296 296 295 295 296 297
312 312 312 312 311 310 309 308 307 306 303 298 293 292 292 293 294 295 298 302 304 305 305 303 302 301 301 301 299 297 295 296 296 296 295 295 295 295 295 295 294 295
311 312 312 311 311 310 309 308 307 306 302 296 292 291 291 291 292 293 295 300 303 305 304 303 301 301 301 301 300 298 296 295 295 295 295 295 295 295 294 294 294 293
311 312 312 311 310 309 309 308 307 306 302 296 293 292 291 291 291 291 292 295 298 302 304 303 302 301 301 301 301 299 297 295 294 295 295 295 295 294 294 294 294 293
311 311 311 310 310 309 309 308 307 305 302 298 297 296 294 292 291 291 291 291 293 297 300 302 302 302 301 301 301 301 299 296 294 295 295 296 295 295 294 293 293 293
311 310 310 310 310 309 308 308 306 305 302 299 299 299 297 295 293 292 291 291 290 291 294 296 299 301 302 302 301 301 301 297 294 295 296 296 296 295 293 293 293 292
310 310 310 310 309 309 308 308 306 304 301 299 300 301 299 298 296 294 293 293 292 291 290 291 293 296 299 301 301 301 301 298 295 295 296 296 296 295 294 292 292 292
310 310 310 310 309 309 309 308 306 304 300 298 300 301 300 299 298 297 296 296 295 293 292 290 290 291 293 296 298 300 300 298 295 295 296 296 295 295 294 292 292 291
310 310 310 309 309 309 308 308 307 304 300 298 299 301 301 300 299 298 298 297 296 295 293 291 290 289 289 291 293 296 297 297 295 295 295 295 295 294 293 292 291 291
310 310 310 309 309 309 308 307 307 306 303 299 298 300 301 301 300 299 299 297 296 296 295 293 291 290 289 289 289 291 293 294 294 294 295 295 295 294 292 292 291 291
Wind_Speed
7 7 7 8 7 7 7 7 6 6 7 8 8 8 8 8 8 8 8 8 8 7 5 5 5 6 7 7 7 10 10 9 9 8 7 7 7 6 6 6 6 6
7 7 6 6 6 6 6 6 6 6 7 7 7 7 7 7 7 7 7 8 8 8 5 3 3 4 6 7 10 13 13 12 13 12 12 13 13 12 12 11 12 12
5 5 5 5 5 5 5 5 6 6 6 6 6 7 7 6 6 6 6 7 7 7 5 2 3 6 8 8 9 12 13 15 16 13 13 15 15 15 16 15 16 15
3 3 3 3 3 4 4 5 6 6 6 6 7 7 7 6 6 6 6 6 6 6 4 3 5 7 9 9 9 12 14 16 16 14 14 17 16 15 15 13 13 12
4 3 3 2 4 4 4 5 6 7 7 8 9 9 8 7 6 5 6 5 5 5 5 5 7 9 10 10 11 13 15 16 14 13 14 16 15 14 14 12 11 11
3 4 3 2 4 4 6 8 8 9 10 10 11 11 10 8 7 6 6 6 6 6 6 8 10 11 12 11 11 13 16 16 15 14 13 14 13 12 13 12 11 12
3 3 1 2 3 5 7 9 9 10 11 11 11 11 10 9 8 7 7 6 7 7 8 10 12 13 13 13 14 16 17 17 16 15 13 12 12 12 12 12 12 13
2 1 1 2 3 4 6 7 8 10 10 10 11 11 10 9 8 8 7 7 7 9 11 12 13 14 14 15 16 16 16 16 15 14 12 12 13 13 14 13 13 14
1 2 4 5 5 5 5 6 7 8 9 10 11 12 10 9 8 8 7 8 9 11 13 13 14 14 14 15 14 13 14 14 13 13 14 15 16 17 16 16 16 16
2 4 8 8 6 6 5 5 5 6 8 9 11 12 10 8 7 7 8 9 10 12 13 13 14 13 13 13 12 12 12 12 13 14 16 18 19 19 19 18 18 19
3 6 9 10 8 7 6 5 5 5 6 8 10 11 10 7 6 7 9 10 12 13 14 13 13 13 12 13 13 13 13 14 15 17 18 19 19 20 20 21 21 21
4 7 9 9 8 7 7 6 5 5 5 7 9 10 9 7 7 8 10 11 13 14 14 14 14 14 15 15 15 15 15 16 17 18 18 19 19 20 20 21 21 21
5 7 8 7 7 8 8 7 5 4 5 6 8 8 7 7 8 9 10 12 13 14 15 16 16 16 17 16 16 16 16 17 17 18 19 19 19 20 20 20 21 21
5 8 8 7 7 9 9 7 5 4 4 5 6 6 6 7 8 10 11 11 12 14 15 16 16 16 16 15 15 15 16 17 18 19 19 19 19 19 19 20 20 20
5 8 10 9 9 9 9 8 6 4 4 5 5 5 7 7 8 9 10 11 12 13 14 15 16 16 15 14 14 14 15 18 19 20 21 21 20 20 19 19 20 20
6 10 11 11 10 10 10 8 6 5 4 5 5 6 7 8 8 8 9 10 11 12 13 14 16 17 15 14 13 14 16 18 20 21 21 21 21 21 20 19 18 19
9 11 13 12 12 11 10 9 7 5 5 5 6 7 8 8 8 9 10 11 12 13 13 15 17 17 15 14 14 14 15 17 19 20 20 20 20 20 20 19 18 17
11 14 15 14 13 12 11 10 8 7 6 7 8 9 9 10 10 11 12 12 13 13 14 15 16 16 14 13 14 14 14 15 17 19 19 19 19 19 19 19 19 18
14 16 17 16 15 13 12 11 10 8 8 9 10 10 11 11 12 12 13 13 13 13 14 15 15 14 13 12 12 13 13 13 15 17 18 18 18 18 18 18 18 18
17 18 18 17 16 15 13 12 11 10 10 11 11 12 12 12 13 13 14 13 13 13 13 13 13 12 10 10 10 11 11 11 12 14 16 17 17 17 17 17 17 17
19 20 19 17 17 16 15 14 12 10 11 12 12 12 12 13 13 13 14 14 13 13 13 12 11 9 8 7 7 8 9 9 10 12 14 15 15 16 16 16 15 16
21 21 19 17 17 17 16 15 13 11 12 14 13 13 12 13 13 13 14 14 13 12 12 12 10 8 6 5 4 5 6 7 9 10 12 13 13 14 15 15 14 14
23 21 19 18 18 18 18 16 14 12 14 16 14 13 12 12 12 13 13 13 13 13 12 12 10 8 5 4 3 3 4 5 7 9 10 11 12 12 13 14 14 13
24 22 20 19 19 19 19 17 15 14 15 17 16 13 12 11 11 11 11 11 11 12 11 11 11 9 7 5 4 3 3 5 7 9 10 11 11 11 12 12 13 13
24 22 20 19 19 20 20 18 17 15 16 17 17 14 12 11 10 9 9 9 9 9 10 10 10 9 8 6 5 4 3 4 6 8 10 11 11 11 12 12 12 13
24 23 21 20 19 20 21 19 18 17 17 18 18 16 14 12 10 9 8 8 7 7 7 8 8 8 8 7 6 4 3 4 6 8 9 11 11 11 12 12 12 12
Wind_Direction
327 334 339 341 343 349 355 1 6 10 13 19 31 44 48 37 23 12 10 15 16 12 9 12 31 60 59 49 76 91 84 74 67 60 60 62 53 46 38 29 36 39
316 319 327 337 344 354 4 13 20 23 28 33 38 48 53 39 15 0 2 8 11 12 9 7 34 78 79 60 68 81 81 80 79 72 70 74 73 74 72 68 69 66
314 317 329 341 357 17 25 31 37 39 39 42 43 42 44 39 25 12 10 11 10 11 16 51 91 95 91 76 67 76 83 83 78 72 69 69 67 69 69 67 64 61
343 351 350 0 34 50 49 44 45 43 40 41 42 38 34 31 24 17 16 15 15 19 37 91 110 101 92 91 91 92 93 87 80 77 74 70 64 62 62 59 57 55
3 18 21 45 67 60 50 51 53 52 47 45 43 39 35 31 29 28 28 31 35 45 67 93 108 107 100 101 105 103 99 93 89 82 72 64 57 51 50 49 46 46
358 21 29 52 64 53 57 67 67 62 55 50 45 41 39 39 41 45 47 52 57 65 80 94 104 106 105 106 105 100 95 91 88 80 66 58 54 46 44 45 45 48
6 32 45 71 72 63 71 76 72 66 59 51 45 42 41 42 45 53 57 63 71 78 87 96 102 103 103 102 97 91 87 84 81 75 65 61 60 54 51 54 57 61
32 68 143 140 111 91 87 82 72 67 59 47 42 41 42 44 49 57 65 73 82 88 93 97 100 101 101 98 93 87 80 74 69 67 66 67 67 63 62 64 66 67
100 170 176 168 146 122 108 91 77 67 53 41 39 38 38 44 54 63 72 84 90 93 96 97 97 97 95 92 88 81 73 67 62 66 71 72 70 69 67 66 67 66
152 181 178 173 160 144 129 103 85 68 49 40 38 36 36 44 60 74 85 93 96 97 97 96 96 94 90 87 82 79 78 78 77 78 78 76 74 71 69 67 67 65
154 176 179 177 169 159 149 128 107 80 52 44 39 34 36 47 68 86 96 99 98 98 98 98 98 96 93 89 85 84 85 86 85 83 81 80 78 74 71 69 68 65
159 174 176 176 176 173 162 142 116 85 56 50 42 34 38 56 77 90 97 98 96 98 100 101 100 96 91 87 83 83 83 84 85 84 83 83 80 77 75 73 70 67
167 178 179 180 187 183 167 147 120 88 64 56 47 38 48 72 88 94 97 97 98 100 102 102 99 92 87 83 79 79 81 84 86 85 85 83 82 81 80 76 73 69
174 180 179 177 179 173 164 152 132 100 74 64 56 53 69 90 98 99 101 101 102 105 107 105 98 91 85 80 77 79 82 86 88 87 87 86 84 83 82 81 78 73
186 180 175 171 170 166 161 154 137 109 83 71 72 79 90 102 106 107 107 105 106 110 112 109 101 94 87 78 76 80 86 91 91 90 89 88 86 85 83 84 83 78
194 184 179 175 171 166 160 153 136 115 92 79 88 98 103 108 110 111 111 111 113 116 116 113 105 98 91 81 77 83 90 95 94 91 91 89 87 85 82 82 84 83
199 189 184 179 173 167 161 154 141 124 103 95 105 108 109 111 109 107 108 112 117 121 120 116 109 102 94 84 80 83 90 95 95 92 90 87 85 83 81 80 81 82
203 193 186 180 175 170 164 157 147 134 119 115 117 115 113 111 105 103 106 111 118 122 123 120 113 105 97 88 82 82 85 91 95 93 89 86 83 81 80 80 79 77
203 194 187 182 179 173 169 163 153 142 132 128 126 119 114 109 103 101 103 108 115 119 122 123 118 110 102 92 84 81 80 85 94 95 91 86 82 79 78 77 77 77
201 194 188 186 182 177 173 167 157 148 141 136 129 121 114 108 103 101 100 102 108 114 121 126 124 118 110 99 90 82 77 80 91 96 93 88 84 79 76 74 74 75
197 192 190 189 184 180 177 170 162 154 149 144 132 121 115 109 104 101 99 99 102 107 116 123 126 127 122 109 99 88 78 78 91 98 95 90 86 82 80 76 73 73
195 192 192 190 186 183 179 172 166 160 157 153 141 128 120 112 107 102 99 99 100 102 107 112 119 129 133 126 116 101 86 84 96 104 100 94 91 87 85 82 75 71
196 194 193 190 188 186 182 176 170 164 164 164 155 143 133 123 114 108 102 98 97 97 99 103 110 118 129 139 141 130 110 102 108 115 110 103 99 94 91 88 81 72
198 198 196 193 192 189 185 180 173 169 172 173 168 158 149 140 129 119 111 104 97 94 94 97 102 108 115 127 138 141 135 128 128 127 120 113 109 105 100 95 90 81
200 201 201 198 196 194 190 185 178 174 176 178 179 175 166 158 149 136 126 116 104 96 92 91 94 99 104 109 122 139 148 149 150 144 129 122 119 115 110 102 95 86
201 203 203 202 200 198 194 189 184 182 181 182 185 186 181 174 168 160 148 134 121 108 96 89 88 92 97 100 106 122 141 158 167 159 141 132 129 124 117 108 98 88